This is the latest recevied weather packets stored in our database for station/object IU1OPQ-3. If no packets are shown the sender has not sent any weather packets the latest 10 day(s).
| Time | Temp. | Humidity | Pressure | Rain* | Wind** | Luminosity | Snow |
|---|---|---|---|---|---|---|---|
| 1788361201 | 28.33° C | 48% | 1018.3 hPa | 0 mm | - | - | - |
| 1788360001 | 28.89° C | 48% | 1018.2 hPa | 0 mm | - | - | - |
| 1788358801 | 29.44° C | 45% | 1018.3 hPa | 0 mm | - | - | - |
| 1788357601 | 28.33° C | 47% | 1018.5 hPa | 0 mm | - | - | - |
| 1788356401 | 28.33° C | 49% | 1018.6 hPa | 0 mm | - | - | - |
| 1788355200 | 30° C | 46% | 1019 hPa | 0 mm | - | - | - |
| 1788354001 | 27.78° C | 50% | 1019 hPa | 0 mm | - | - | - |
| 1788352800 | 27.22° C | 52% | 1019 hPa | 0 mm | - | - | - |
| 1788351601 | 27.78° C | 51% | 1019.4 hPa | 0 mm | - | - | - |
| 1788350400 | 27.22° C | 52% | 1019.5 hPa | 0 mm | - | - | - |
| 1788349201 | 26.11° C | 55% | 1020.1 hPa | 0 mm | - | - | - |
| 1788348001 | 25.56° C | 57% | 1020.1 hPa | 0 mm | - | - | - |
| 1788346801 | 25.56° C | 59% | 1020.2 hPa | 0 mm | - | - | - |
| 1788345601 | 24.44° C | 59% | 1020.3 hPa | 0 mm | - | - | - |
| 1788344401 | 24.44° C | 60% | 1020.4 hPa | 0 mm | - | - | - |
| 1788343201 | 23.33° C | 64% | 1020.6 hPa | 0 mm | - | - | - |
| 1788342001 | 23.33° C | 64% | 1020.6 hPa | 0 mm | - | - | - |
| 1788340801 | 22.78° C | 65% | 1020.7 hPa | 0 mm | - | - | - |
| 1788339601 | 22.78° C | 66% | 1020.7 hPa | 0 mm | - | - | - |
| 1788338401 | 22.22° C | 65% | 1020.5 hPa | 0 mm | - | - | - |
| 1788337201 | 21.67° C | 64% | 1020.5 hPa | 0 mm | - | - | - |
| 1788336001 | 21.67° C | 66% | 1020.4 hPa | 0 mm | - | - | - |
| 1788334801 | 21.11° C | 67% | 1020.2 hPa | 0 mm | - | - | - |
| 1788333601 | 21.11° C | 64% | 1020.1 hPa | 0 mm | - | - | - |
| 1788332401 | 21.11° C | 65% | 1020 hPa | 0 mm | - | - | - |
* Rain latest hour (hover to see other rain measurements)
** Current wind speed in m/s (hover to see current wind gust speed)